Change the Weather History Date:

Friday, February 8, 2013

  Actual Average Record
Temperature  
Mean Temperature 60 °F -  
Max Temperature 70 °F 62 °F 81 °F (2008)
Min Temperature 51 °F 44 °F 33 °F (2003)
Degree Days  
Heating Degree Days 4    
Growing Degree Days 10 (Base 50)    
Moisture  
Dew Point 38 °F    
Average Humidity 45    
Maximum Humidity 68    
Minimum Humidity 25    
Precipitation  
Precipitation 0.00 in - - ()
Sea Level Pressure  
Sea Level Pressure 30.12 in    
Wind  
Wind Speed 10 mph (NE)    
Max Wind Speed 17 mph    
Max Gust Speed 25 mph    
Visibility 10 miles    
Events      
Averages and records for this station are not official NWS values.
T = Trace of Precipitation, MM = Missing Value Source: NWS Daily Summary

Daily Weather History Graph

Daily Weather History Graph

Search for Another Location

Airport or City:

Trip Planner

Search our weather history database for the weather conditions in past years. The results will help you decide how hot, cold, wet, or windy it might be!

Date:

Astronomy

Feb. 08, 2013 Rise Set
Actual Time 7:18 AM CST 6:18 PM CST
Civil Twilight 6:53 AM CST 6:42 PM CST
Nautical Twilight 6:25 AM CST 7:10 PM CST
Astronomical Twilight 5:57 AM CST 7:38 PM CST
Moon 5:44 AM CST (2/8) 4:55 PM CST (2/8)
Length of Visible Light 11h 49m
Length of Day
10h 59m
Waning Crescent, 3% of the Moon is Illuminated
Feb 8
Waning Crescent
Feb 10
New
Feb 17
First Quarter
Feb 25
Full
Mar 4
Last Quarter

Hourly Weather History & Observations

Time (CST) Temp. Dew Point Humidity Pressure Visibility Wind Dir Wind Speed Gust Speed Precip Events Conditions
12:53 AM 62.1 °F 46.0 °F 56% 30.05 in 10.0 mi North 13.8 mph 20.7 mph N/A   Clear
1:53 AM 60.1 °F 45.0 °F 57% 30.06 in 10.0 mi NNE 9.2 mph 19.6 mph N/A   Clear
2:53 AM 59.0 °F 45.0 °F 60% 30.06 in - North - - N/A   Unknown
3:53 AM 57.0 °F 44.1 °F 62% 30.09 in 10.0 mi NNE 10.4 mph - N/A   Clear
4:53 AM 55.0 °F 43.0 °F 64% 30.12 in 10.0 mi NNE 10.4 mph - N/A   Clear
5:53 AM 54.0 °F 42.1 °F 64% 30.14 in 10.0 mi NNE 6.9 mph - N/A   Clear
6:53 AM 51.1 °F 41.0 °F 68% 30.17 in 10.0 mi NNE 6.9 mph - N/A   Clear
7:53 AM 52.0 °F 41.0 °F 66% 30.20 in 10.0 mi NNE 6.9 mph - N/A   Clear
8:53 AM 55.0 °F 39.9 °F 57% 30.20 in 10.0 mi NNE 15.0 mph 20.7 mph N/A   Clear
9:53 AM 57.9 °F 37.0 °F 46% 30.21 in 10.0 mi NNE 17.3 mph 25.3 mph N/A   Clear
10:53 AM 62.1 °F 36.0 °F 38% 30.21 in 10.0 mi NE 8.1 mph 18.4 mph N/A   Clear
11:53 AM 66.0 °F 33.1 °F 29% 30.19 in 10.0 mi NNE 12.7 mph 21.9 mph N/A   Clear
12:53 PM 68.0 °F 33.1 °F 27% 30.17 in 10.0 mi ENE 9.2 mph - N/A   Clear
1:53 PM 69.1 °F 32.0 °F 25% 30.13 in 10.0 mi East 13.8 mph 20.7 mph N/A   Clear
2:53 PM 70.0 °F 32.0 °F 25% 30.11 in 10.0 mi ENE 12.7 mph 17.3 mph N/A   Clear
3:53 PM 70.0 °F 33.1 °F 26% 30.10 in 10.0 mi East 9.2 mph - N/A   Clear
4:53 PM 68.0 °F 33.1 °F 27% 30.09 in 10.0 mi East 8.1 mph - N/A   Clear
5:53 PM 66.9 °F 33.1 °F 28% 30.09 in 10.0 mi ENE 5.8 mph - N/A   Mostly Cloudy
6:53 PM 64.9 °F 34.0 °F 32% 30.09 in 10.0 mi East 4.6 mph - N/A   Clear
7:53 PM 62.1 °F 36.0 °F 38% 30.09 in 10.0 mi East 3.5 mph - N/A   Clear
8:53 PM 61.0 °F 37.9 °F 42% 30.09 in 10.0 mi East 4.6 mph - N/A   Clear
9:53 PM 59.0 °F 37.0 °F 44% 30.09 in 10.0 mi East 4.6 mph - N/A   Clear
10:53 PM 55.0 °F 39.0 °F 55% 30.09 in 10.0 mi ESE 3.5 mph - N/A   Partly Cloudy
11:53 PM 55.9 °F 39.0 °F 53% 30.07 in 10.0 mi ENE 5.8 mph - N/A   Scattered Clouds